Regional Weather Roundup
Issued by NWS

Home | Current Version | Previous Version | Text Only | Print | Product List | Glossary Off
Versions: 1 2 3 4 5 6 7 8 9 10 11 12 13 14 15 16 17 18 19 20 21 22 23 24 25 26 27

000
ASUS45 KCYS 231110
RWRWY

WYOMING REGIONAL WEATHER ROUNDUP
NATIONAL WEATHER SERVICE CHEYENNE WY
400 AM MST FRI FEB 23 2018

NOTE:  "FAIR" INDICATES FEW OR NO CLOUDS BELOW 12,000 FEET
WITH NO SIGNIFICANT WEATHER AND/OR OBSTRUCTIONS TO VISIBILITY.

WYZ001-231200-
YELLOWSTONE NATIONAL PARK

CITY           SKY/WX    TMP DP  RH WIND       PRES   REMARKS
LK YELLOWSTONE   N/A    -11 -15  82 CALM      29.90R
W YELLOWSTONE  NOT AVBL

$$
WYZ002>013-054>058-071-098>099-231200-
NORTHERN WYOMING

CITY           SKY/WX    TMP DP  RH WIND       PRES   REMARKS
JACKSON        LGT SNOW   7   3  84 N8        29.93S FOG     WCI  -6
CODY           FAIR      -2  -6  83 SW8       30.02F WCI -17
GREYBULL       FAIR     -13 -17  82 CALM      30.13R
WORLAND        FAIR      -7 -10  87 S6        30.09F WCI -20
SHERIDAN       FAIR      -5  -8  87 CALM      30.08S
BUFFALO        FAIR       4  -6  63 S7        30.01F WCI  -8
GILLETTE       FAIR      -9 -14  78 S6        30.07F WCI -22
HULETT         FAIR       1  -6  71 MISG      30.09R
NEWCASTLE      FAIR      -4  -9  77 CALM      30.08F

$$
WYZ014>020-022>026-101>103-231200-
CENTRAL WYOMING

CITY           SKY/WX    TMP DP  RH WIND       PRES   REMARKS
BIG PINEY      CLOUDY     0  -4  83 N3        29.91S
PINEDALE       PTSUNNY   -4  -8  84 NW6       29.91S WCI -16
DUBOIS           N/A    N/A N/A N/A MISG        N/A
LANDER         FAIR       0  -5  79 W5        29.98S WCI -10
RIVERTON       FAIR      -2  -8  76 W8        30.00R WCI -17
CASPER         FAIR     -13 -16  86 NW5       30.02S WCI -25
DOUGLAS        FAIR      -9 -15  75 CALM      30.05F

$$
WYZ021-027>030-104>119-231200-
SOUTHERN WYOMING

CITY           SKY/WX    TMP DP  RH WIND       PRES   REMARKS
EVANSTON       FAIR       5   2  87 E13       29.85S WCI -12
ROCK SPRINGS   MOCLDY     6   2  83 E6        29.90S WCI  -4
DIXON          LGT SNOW  20  16  84 E9        29.95F WCI  10
RAWLINS        CLOUDY    10   7  87 CALM      29.93S
SARATOGA       CLOUDY    14  10  85 SE7       29.93S WCI   4
LARAMIE        FAIR       3   0  87 SW3       29.91F
CHEYENNE       FAIR      14  11  87 W5        29.97F WCI   6
TORRINGTON     FAIR       8   5  87 W5        30.07R WCI   0
PINE BLUFFS    CLOUDY    10   5  79 S6        30.03F WCI   1

$$




USA.gov is the U.S. government's official web portal to all federal, state and local government web resources and services.